metlocid,date_time,avg_rh2m,std_rh2m,min_rh2m,max_rh2m,n_rh2m,avg_rh1m,std_rh1m,min_rh1m,max_rh1m,n_rh1m,avg_rh3m,std_rh3m,min_rh3m,max_rh3m,n_rh3m,n_comments
CAAM,12/1/94,62.91237363,20.56783273,23.77,99.99,1820,,,,,0,,,,,0,374
CAAM,1/1/95,67.94451174,18.6115512,19.8,99.99,1485,,,,,0,,,,,0,34
CAAM,11/1/95,50.09944448,20.04965222,22.1,99.99,990,53.71961621,20.23885714,23.5,99.18,990,,,,,0,3
CAAM,12/1/95,63.4516605,17.22434207,24.9,99.99,2975,67.15049078,15.85208182,28.1,99.9,2975,,,,,0,8
CAAM,1/1/96,67.77875562,18.68138108,24.9,99.99,2877,70.92483479,17.37220341,31.3,99.99,2877,,,,,0,51
CAAM,2/1/96,60.00142247,12.73137122,30.9,99.99,2784,63.13214441,12.02952127,33.86,99.99,2784,,,,,0,2
CAAM,3/1/96,75.13789991,22.06470377,21.79,99.99,2976,76.69942883,20.93803155,22.73,99.99,2976,,,,,0,4
CAAM,4/1/96,70.34949641,23.53021714,28.85,99.99,2880,72.33431583,22.19774611,30.74,99.99,2880,,,,,0,116
CAAM,5/1/96,67.76126342,18.48465942,33.34,98.5,2976,69.80013107,17.35284258,35.78,98.81,2976,,,,,0,0
CAAM,6/1/96,66.57894103,20.35014982,27.73,96.18,2880,68.40310766,19.64823348,28.23,96.5,2880,,,,,0,0
CAAM,7/1/96,52.32783268,16.51951664,27.9,91.15,2976,54.49266467,16.34901306,28.36,90.66,2976,,,,,0,0
CAAM,8/1/96,61.68915803,20.40952261,28.52,96.92,1924,63.79101355,19.87907505,29.09,97.27,1924,,,,,0,0
CAAM,11/1/96,53.88305008,8.149069942,31.57,68.4,200,56.50074986,7.960589244,34.27,70.86,200,,,,,0,0
CAAM,12/1/96,59.59173383,17.75923937,25.59,99.99,2976,62.0761189,16.72588185,29.54,99.99,2976,,,,,0,81
CAAM,1/1/97,73.9487749,20.53462313,30.3,99.99,1478,75.68554755,19.0503657,34,99.99,1478,,,,,0,329
CAAM,1/1/98,72.16421955,20.32785522,27.08,99.99,2474,,,,,0,,,,,0,345
CAAM,2/1/98,72.44468878,21.63469559,29.69,99.99,2621,,,,,0,,,,,0,436
CAAM,3/1/98,66.16829633,20.60541465,33.02,99.99,2976,,,,,0,,,,,0,54
CAAM,4/1/98,64.05498953,19.46789142,28.04,99.99,2880,,,,,0,,,,,0,31
CAAM,5/1/98,66.14039312,22.51855772,27.83,99.99,2976,,,,,0,,,,,0,35
CAAM,6/1/98,60.74920815,24.39700542,25.46,99.99,2880,,,,,0,,,,,0,268
CAAM,7/1/98,61.52490591,22.36411138,26.94,99.99,2976,,,,,0,,,,,0,2
CAAM,8/1/98,57.45287973,17.27596303,27.72,93.13,2976,,,,,0,,,,,0,0
CAAM,9/1/98,65.82028472,15.25397532,29.15,92.64,2880,,,,,0,,,,,0,0
CAAM,10/1/98,59.66836684,22.64353015,23.4,99.99,2976,,,,,0,,,,,0,93
CAAM,11/1/98,56.60040277,16.53686154,27.57,99.99,2880,,,,,0,,,,,0,26
CAAM,12/1/98,61.01135756,20.78921601,20.21,100,2976,,,,,0,,,,,0,0
CAAM,1/1/99,67.45131384,21.08226557,23.38,100,2976,,,,,0,,,,,0,0
CAAM,2/1/99,68.31398062,20.28107257,24.55,100,2688,,,,,0,,,,,0,0
CAAM,3/1/99,57.32443889,16.4742104,29.17,100,2976,,,,,0,,,,,0,0
CAAM,4/1/99,61.79389929,15.15027639,31.16,95.2,2880,,,,,0,,,,,0,0
CAAM,5/1/99,53.99059808,16.37271698,29.88,100,2976,,,,,0,,,,,0,0
CAAM,6/1/99,67.54648257,26.14004494,28.44,100,2880,,,,,0,,,,,0,0
CAAM,7/1/99,57.46610213,22.19629176,27.94,100,2976,,,,,0,,,,,0,0
CAAM,8/1/99,56.77546035,19.20141595,31.1,95.86,2976,,,,,0,,,,,0,0
CAAM,9/1/99,64.89225694,24.14613122,25.55,100,2880,,,,,0,,,,,0,0
CAAM,10/1/99,52.9614415,22.23841187,23.47,100,2976,,,,,0,,,,,0,0
CAAM,11/1/99,61.73618754,21.92914512,23.64,100,2880,,,,,0,,,,,0,0
CAAM,12/1/99,58.03893484,18.54205037,20.6,100,2976,,,,,0,,,,,0,0
CAAM,1/1/00,61.57868951,20.80219882,21.62,100,2976,,,,,0,,,,,0,0
CAAM,2/1/00,61.03837646,23.88530072,24.67,100,2784,,,,,0,,,,,0,0
CAAM,3/1/00,66.52931789,27.72229915,26.88,100,2976,,,,,0,,,,,0,0
CAAM,4/1/00,63.75557289,23.04502556,25.87,100,2880,,,,,0,,,,,0,0
CAAM,5/1/00,67.69381197,24.69718692,28.92,100,2946,,,,,0,,,,,0,0
CAAM,6/1/00,59.49356598,20.09737544,24.82,99.12,2880,,,,,0,,,,,0,0
CAAM,7/1/00,53.7695351,22.88124854,8.52,99.21,2947,,,,,0,,,,,0,0
CAAM,8/1/00,52.70431453,20.03902484,25.86,100,2976,,,,,0,,,,,0,0
CAAM,9/1/00,53.48971872,19.46649708,26.27,100,2880,,,,,0,,,,,0,0
CAAM,10/1/00,62.77645156,19.7284842,30.7,100,2976,,,,,0,,,,,0,0
CAAM,11/1/00,59.58993049,26.4721731,21.76,100,2878,,,,,0,,,,,0,0
CAAM,12/1/00,71.18941197,16.31015691,28.76,100,2976,,,,,0,,,,,0,0
CAAM,1/1/01,74.57365929,16.88590397,26.11,100,2976,,,,,0,,,,,0,0
CAAM,2/1/01,65.4822523,20.6818271,15.87,100,2655,,,,,0,,,,,0,0
CAAM,3/1/01,69.66845764,22.41984562,12.95,100,2976,,,,,0,,,,,0,0
CAAM,4/1/01,74.13177429,25.08233768,18.62,100,2880,,,,,0,,,,,0,0
CAAM,5/1/01,64.67393146,24.61000453,14.64,100,2976,,,,,0,,,,,0,0
CAAM,6/1/01,66.1263352,23.26124969,24.85,100,2846,,,,,0,,,,,0,0
CAAM,7/1/01,59.18301078,22.8344195,21.65,100,2976,,,,,0,,,,,0,0
CAAM,8/1/01,73.11873319,23.68856744,24.17,100,2976,,,,,0,,,,,0,0
CAAM,9/1/01,63.63442353,24.16912113,12.59,100,2880,,,,,0,,,,,0,0
CAAM,10/1/01,54.76125672,18.95559877,22.46,100,2976,,,,,0,,,,,0,0
CAAM,11/1/01,58.66017009,15.79142587,21.52,100,2880,,,,,0,,,,,0,0
CAAM,12/1/01,58.20921822,15.87491117,15.81,100,2942,,,,,0,,,,,0,0
CAAM,1/1/02,69.25906929,24.07892921,17.58,100,2976,,,,,0,,,,,0,0
CAAM,2/1/02,64.95354165,18.80027618,25.36,100,2688,,,,,0,,,,,0,0
CAAM,3/1/02,66.11781586,24.82497701,22.2,100,2976,,,,,0,,,,,0,0
CAAM,4/1/02,64.190875,25.21369249,23.01,100,2880,,,,,0,,,,,0,0
CAAM,5/1/02,62.84939855,23.77517151,21.31,100,2976,,,,,0,,,,,0,0
CAAM,6/1/02,72.4433021,23.41078107,13.83,100,2880,,,,,0,,,,,0,0
CAAM,7/1/02,55.73012097,22.79958468,15.45,100,2976,,,,,0,,,,,0,0
CAAM,8/1/02,65.74384414,22.90285758,29.3,100,2976,,,,,0,,,,,0,0
CAAM,9/1/02,68.94380555,25.68259965,23.52,100,2880,,,,,0,,,,,0,0
CAAM,10/1/02,69.06635416,22.40182815,23.18,100,2976,,,,,0,,,,,0,0
CAAM,11/1/02,73.33997922,21.91572369,14.34,100,2880,,,,,0,,,,,0,0
CAAM,12/1/02,73.96407066,17.24154481,26.31,100,2943,,,,,0,,,,,0,0
CAAM,1/1/03,70.7245042,17.4565773,24.66,100,2975,,,,,0,,,,,0,0
CAAM,2/1/03,70.05436014,18.69729457,28.17,100,2688,,,,,0,,,,,0,0
CAAM,3/1/03,67.58442209,23.10544197,27.75,100,2976,,,,,0,,,,,0,0
CAAM,4/1/03,71.21420139,21.5169301,29.01,100,2880,,,,,0,,,,,0,0
CAAM,5/1/03,56.36232189,24.37223341,13.28,100,2976,,,,,0,,,,,0,0
CAAM,6/1/03,65.0692813,25.31494354,14.35,100,2880,,,,,0,,,,,0,0
CAAM,7/1/03,49.42757391,22.88525277,20.82,100,2976,,,,,0,,,,,0,0
CAAM,8/1/03,68.08913637,20.9843508,17.22,100,2976,,,,,0,,,,,0,0
CAAM,9/1/03,68.08434719,25.04899024,11.29,100,2880,,,,,0,,,,,0,0
CAAM,10/1/03,55.57512432,23.75411714,15.27,100,2976,,,,,0,,,,,0,0
CAAM,11/1/03,61.47828817,17.09736417,26.62,100,2880,,,,,0,,,,,0,0
CAAM,12/1/03,60.73506044,21.39076632,16.64,100,2976,,,,,0,,,,,0,0
CAAM,1/1/04,71.15956289,15.38503339,24.32,100,2974,,,,,0,,,,,0,0
CAAM,2/1/04,63.00934627,19.55303959,25.35,100,2784,,,,,0,,,,,0,0
CAAM,3/1/04,73.36135412,20.64292712,32.12,100,2976,,,,,0,,,,,0,0
CAAM,4/1/04,67.46531604,22.58447702,25.83,100,2880,,,,,0,,,,,0,0
CAAM,5/1/04,58.94975134,23.79549473,20.3,100,2976,,,,,0,,,,,0,0
CAAM,6/1/04,57.36269444,26.69956837,11.52,100,2880,,,,,0,,,,,0,0
CAAM,7/1/04,64.83449933,24.62375454,10.31,98.41,2976,,,,,0,,,,,0,0
CAAM,8/1/04,59.08793349,26.07695139,9.46,100,2976,,,,,0,,,,,0,0
CAAM,9/1/04,74.97158334,22.04881549,21.99,100,2880,,,,,0,,,,,0,0
CAAM,10/1/04,59.30014784,19.83784742,19.39,100,2976,,,,,0,,,,,0,0
CAAM,11/1/04,60.03583745,19.47958626,19.65,100,2878,,,,,0,,,,,0,0
CAAM,12/1/04,67.7264449,19.35133065,22.98,100,2976,,,,,0,,,,,0,0
CAAM,1/1/05,74.82771846,16.40893077,26.21,100,2976,,,,,0,,,,,0,0
CAAM,2/1/05,68.39445687,22.41309831,26.54,100,2688,,,,,0,,,,,0,0
CAAM,3/1/05,65.70716734,22.5346823,23.75,100,2976,,,,,0,,,,,0,0
CAAM,4/1/05,81.39455206,20.46340677,31.1,100,2880,,,,,0,,,,,0,0
CAAM,5/1/05,69.72376005,24.5660104,22.47,100,2976,,,,,0,,,,,0,0
CAAM,6/1/05,71.3506493,23.86435835,20.39,100,2880,,,,,0,,,,,0,0
CAAM,7/1/05,68.20287633,23.79786281,20.91,100,2976,,,,,0,,,,,0,0
CAAM,8/1/05,72.49574596,24.15584415,19.47,100,2976,,,,,0,,,,,0,0
CAAM,9/1/05,52.69557986,19.8492167,14.29,100,2880,,,,,0,,,,,0,0
CAAM,10/1/05,64.87515797,23.6883568,13.54,100,2976,,,,,0,,,,,0,0
CAAM,11/1/05,67.08432645,19.08055444,23.76,100,2880,,,,,0,,,,,0,0
CAAM,12/1/05,72.88508569,18.05828662,27.17,100,2975,,,,,0,,,,,0,0
CAAM,1/1/06,73.13909275,17.63464844,28.41,100,2976,,,,,0,,,,,0,0
CAAM,2/1/06,73.88113841,19.44196787,32.66,100,2688,,,,,0,,,,,0,0
CAAM,3/1/06,73.83710352,21.82438316,27.99,100,2976,,,,,0,,,,,0,0
CAAM,4/1/06,70.4063577,19.60158583,27.31,100,2880,,,,,0,,,,,0,0
CAAM,5/1/06,73.44790319,22.71959938,12.62,100,2976,,,,,0,,,,,0,0
CAAM,6/1/06,68.16668756,22.8119701,26.37,100,2880,,,,,0,,,,,0,0
CAAM,7/1/06,66.38487232,21.31031686,20.89,100,2976,,,,,0,,,,,0,0
CAAM,8/1/06,69.24636762,24.95510105,24.04,100,2976,,,,,0,,,,,0,0
CAAM,9/1/06,72.62423614,25.38656521,30.71,100,2880,,,,,0,,,,,0,0
CAAM,10/1/06,72.4822178,19.47279964,29.4,100,2976,,,,,0,,,,,0,0
CAAM,11/1/06,62.77203355,18.86981116,29.31,100,2149,,,,,0,,,,,0,0
CAAM,12/1/06,,,,,0,,,,,0,,,,,0,0
CAAM,1/1/07,76.70430898,12.21104957,37.04,100,427,,,,,0,,,,,0,0
CAAM,2/1/07,77.80668525,19.44271743,30.68,100,2688,,,,,0,,,,,0,0
CAAM,3/1/07,72.05913636,24.76985482,16.33,100,2976,,,,,0,,,,,0,0
CAAM,4/1/07,67.48216664,23.16574262,23.9,100,2880,,,,,0,,,,,0,0
CAAM,5/1/07,59.68833331,23.07319662,12.51,100,2976,,,,,0,,,,,0,0
CAAM,6/1/07,57.5205736,23.01469341,13.58,100,2406,,,,,0,,,,,0,0
CAAM,11/1/07,69.44173258,15.97323007,10.15,100,2049,,,,,0,,,,,0,0
CAAM,12/1/07,60.28097441,22.03855884,21.22,100,2976,,,,,0,,,,,0,0
CAAM,1/1/08,63.62942982,16.17440693,25.36,98.88,2473,,,,,0,,,,,0,0
CAAM,10/1/08,75.40158486,21.43390461,21.6,100,2587,,,,,0,,,,,0,0
CAAM,11/1/08,65.10208345,20.75476088,13.44,100,2875,,,,,0,,,,,0,0
CAAM,12/1/08,60.02040671,18.06802092,16.95,100,2975,,,,,0,,,,,0,0
CAAM,1/1/09,69.06021168,17.6840666,25.02,100,2976,,,,,0,,,,,0,0
CAAM,2/1/09,71.97133929,17.76403743,22.83,100,2688,,,,,0,,,,,0,0
CAAM,3/1/09,73.9996875,22.392857,23.05,100,2976,,,,,0,,,,,0,0
CAAM,4/1/09,63.95364932,23.06876044,24.11,100,2880,,,,,0,,,,,0,0
CAAM,5/1/09,61.86215392,22.65182794,19.07,100,2976,,,,,0,,,,,0,0
CAAM,6/1/09,58.04965274,24.41908747,16.3,100,2880,,,,,0,,,,,0,0
CAAM,7/1/09,66.10867945,26.53434677,20.59,100,2976,,,,,0,,,,,0,0
CAAM,8/1/09,68.35731518,24.55604828,26.5,100,2976,,,,,0,,,,,0,0
CAAM,9/1/09,49.77262851,23.17336393,9.55,100,2880,,,,,0,,,,,0,0
CAAM,10/1/09,65.8574194,20.49796737,25.61,100,2976,,,,,0,,,,,0,0
CAAM,11/1/09,57.74060417,19.00474336,18.39,100,2880,,,,,0,,,,,0,0
CAAM,12/1/09,70.27978496,17.37325436,26.09,100,2976,,,,,0,,,,,0,0
CAAM,1/1/10,74.00698591,14.85407305,28.78,100,2976,,,,,0,,,,,0,0
CAAM,2/1/10,72.57952756,20.50690035,20.03,100,2688,,,,,0,,,,,0,0
CAAM,3/1/10,74.43873992,19.50142547,32,100,2976,,,,,0,,,,,0,0
CAAM,4/1/10,66.25684724,24.57195235,18.84,100,2880,,,,,0,,,,,0,0
CAAM,5/1/10,65.65771838,22.92642994,25.96,100,2976,,,,,0,,,,,0,0
CAAM,6/1/10,59.19811804,21.32417662,23.61,100,2880,,,,,0,,,,,0,0
CAAM,7/1/10,57.04686154,22.495328,20.48,100,2976,,,,,0,,,,,0,0
CAAM,8/1/10,69.19070901,27.45545846,12.81,100,2976,,,,,0,,,,,0,0
CAAM,9/1/10,69.37066314,24.1671166,19.65,100,2880,,,,,0,,,,,0,0
CAAM,10/1/10,64.11049063,23.67386992,13.78,100,2976,,,,,0,,,,,0,0
CAAM,11/1/10,50.40673955,18.36068272,14.91,100,2880,,,,,0,,,,,0,0
CAAM,12/1/10,61.25539658,19.18474244,13.77,100,2963,,,,,0,,,,,0,0
CAAM,1/1/11,79.52146928,18.15397175,27.26,100,2457,,,,,0,,,,,0,0
CAAM,2/1/11,,,,,0,,,,,0,,,,,0,0
CAAM,3/1/11,,,,,0,,,,,0,,,,,0,0
CAAM,4/1/11,,,,,0,,,,,0,,,,,0,0
CAAM,5/1/11,,,,,0,,,,,0,,,,,0,0
CAAM,6/1/11,,,,,0,,,,,0,,,,,0,0
CAAM,7/1/11,,,,,0,,,,,0,,,,,0,0
CAAM,8/1/11,,,,,0,,,,,0,,,,,0,0
CAAM,9/1/11,,,,,0,,,,,0,,,,,0,0
CAAM,10/1/11,,,,,0,,,,,0,,,,,0,0
CAAM,11/1/11,,,,,0,,,,,0,62.56842637,18.54754287,15.95,100,2256,0
CAAM,12/1/11,,,,,0,,,,,0,65.65032935,17.88643514,20.71,100,2976,0
CAAM,1/1/12,,,,,0,,,,,0,69.65406584,16.27983839,25.03,100,2976,0
CAAM,2/1/12,,,,,0,,,,,0,64.68083335,21.66584074,18.02,100,2784,0
CAAM,3/1/12,,,,,0,,,,,0,64.08720766,25.08011659,25.05,100,2976,0
CAAM,4/1/12,,,,,0,,,,,0,64.81951043,25.23303618,27.79,100,2880,0
CAAM,5/1/12,,,,,0,,,,,0,56.92041665,28.76524726,13.98,100,2976,0
CAAM,6/1/12,,,,,0,,,,,0,63.60240971,27.3094273,10.47,100,2880,0
CAAM,7/1/12,,,,,0,,,,,0,72.33323583,23.04287063,28.73,100,2976,0
CAAM,8/1/12,,,,,0,,,,,0,69.14092407,27.22163803,11.31,100,2976,0
CAAM,9/1/12,,,,,0,,,,,0,64.21685068,21.71851623,25.98,100,2880,0
CAAM,10/1/12,,,,,0,,,,,0,60.7921001,20.34603781,22.62,100,2976,0
CAAM,11/1/12,,,,,0,,,,,0,61.80162847,17.81484158,26.52,100,2880,0
CAAM,12/1/12,,,,,0,,,,,0,69.10942203,17.58976402,20.7,100,2976,0
CAAM,1/1/13,,,,,0,,,,,0,72.41520834,20.10500697,18.23,100,2976,0
CAAM,2/1/13,,,,,0,,,,,0,68.79166294,20.23529186,27.7,100,2688,0
CAAM,3/1/13,,,,,0,,,,,0,73.02152216,21.4841559,31.68,100,2976,0
CAAM,4/1/13,,,,,0,,,,,0,65.81090279,21.54723698,22.46,100,2880,0
CAAM,5/1/13,,,,,0,,,,,0,67.89975806,24.4956919,22.15,100,2976,0
CAAM,6/1/13,,,,,0,,,,,0,68.97211464,23.63898194,23.73,100,2880,0
CAAM,7/1/13,,,,,0,,,,,0,73.69230514,23.35581305,24.96,100,2976,0
CAAM,8/1/13,,,,,0,,,,,0,60.18362904,21.76432668,13.22,100,2976,0
CAAM,9/1/13,,,,,0,,,,,0,63.27539926,26.79135726,11.66,100,2880,0
CAAM,10/1/13,,,,,0,,,,,0,74.1409489,22.48037512,28.99,100,2972,0
CAAM,11/1/13,,,,,0,,,,,0,59.44862153,21.01185556,21.88,100,2880,0
CAAM,12/1/13,,,,,0,,,,,0,65.09899193,19.50022521,19.9,100,2976,0
CAAM,1/1/14,,,,,0,,,,,0,65.22965726,19.50594708,23.66,100,2976,0
CAAM,2/1/14,,,,,0,,,,,0,66.22875368,20.77585832,14.99,100,2688,0
CAAM,3/1/14,,,,,0,,,,,0,67.06165993,25.81358288,21.99,100,2976,0
CAAM,4/1/14,,,,,0,,,,,0,70.9105972,27.16067877,13.15,100,2880,0
CAAM,5/1/14,,,,,0,,,,,0,71.83248323,25.13755759,23.19,100,2976,0
CAAM,6/1/14,,,,,0,,,,,0,68.7337257,25.23617032,21.27,100,2880,0
CAAM,7/1/14,,,,,0,,,,,0,65.95042342,20.69515978,22.71,100,2976,0
CAAM,8/1/14,,,,,0,,,,,0,65.32444559,26.83777785,22.11,100,2976,0
CAAM,9/1/14,,,,,0,,,,,0,60.63619794,26.66472797,12.76,100,2880,0
CAAM,10/1/14,,,,,0,,,,,0,64.72912634,25.49164346,27.01,100,2976,0
CAAM,11/1/14,,,,,0,,,,,0,70.42645299,17.20796055,27.24,100,2870,0
CAAM,12/1/14,,,,,0,,,,,0,71.06003703,14.69918713,28.52,100,2976,0
CAAM,1/1/15,,,,,0,,,,,0,66.91352825,19.80905828,16.83,100,2976,0
CAAM,2/1/15,,,,,0,,,,,0,62.84714284,22.26708179,22.16,100,2688,0
CAAM,3/1/15,,,,,0,,,,,0,67.28171038,20.01333799,26.83,100,2976,0
CAAM,4/1/15,,,,,0,,,,,0,78.01949995,21.75466328,26.3,100,2880,0
CAAM,5/1/15,,,,,0,,,,,0,67.8367641,22.58402826,15.68,100,2976,0
CAAM,6/1/15,,,,,0,,,,,0,55.31819439,20.79350939,13.81,100,2880,0
CAAM,7/1/15,,,,,0,,,,,0,65.23723792,26.13099685,11.81,100,2976,0
CAAM,8/1/15,,,,,0,,,,,0,64.62350474,27.09467588,15.65,100,2976,0
CAAM,9/1/15,,,,,0,,,,,0,63.32189241,24.28465785,15.72,100,2880,0
CAAM,10/1/15,,,,,0,,,,,0,67.04005714,23.02231418,12.67,100,2976,0
CAAM,11/1/15,,,,,0,,,,,0,60.2982748,20.17650338,19.16,100,2875,0
CAAM,12/1/15,,,,,0,,,,,0,66.94413982,21.51785518,13,100,2976,0
CAAM,1/1/16,,,,,0,,,,,0,67.77524526,21.68098408,14.84,100,2976,0
CAAM,2/1/16,,,,,0,,,,,0,63.30098058,21.1927152,23.88,100,2784,0
CAAM,3/1/16,,,,,0,,,,,0,67.68585013,21.85449437,26.6,100,2976,0
CAAM,4/1/16,,,,,0,,,,,0,64.84075701,24.71128164,30.61,100,2880,0
CAAM,5/1/16,,,,,0,,,,,0,62.63281251,25.01412536,12.16,100,2976,0
CAAM,6/1/16,,,,,0,,,,,0,75.68596533,21.41616323,27.66,100,2880,0
CAAM,7/1/16,,,,,0,,,,,0,69.73150871,20.10786249,21.65,100,2976,0
CAAM,8/1/16,,,,,0,,,,,0,57.29352485,23.64704279,13.33,100,2976,0
CAAM,9/1/16,,,,,0,,,,,0,73.14279164,23.89187738,23.75,100,2880,0
CAAM,10/1/16,,,,,0,,,,,0,71.92785545,21.50715911,26.7,100,2975,0
CAAM,11/1/16,,,,,0,,,,,0,65.89069786,20.29456496,12.4,100,2880,0
CAAM,12/1/16,,,,,0,,,,,0,68.10195233,19.11455526,18.34,100,2976,0
CAAM,1/1/17,,,,,0,,,,,0,67.1553394,17.12525717,21.04,100,2976,0
CAAM,2/1/17,,,,,0,,,,,0,60.13062497,18.28661739,23.25,100,2688,0
CAAM,3/1/17,,,,,0,,,,,0,77.24645834,24.21565907,22.42,100,2976,0
CAAM,4/1/17,,,,,0,,,,,0,48.61857292,17.88268083,21.85,100,2880,0
CAAM,5/1/17,,,,,0,,,,,0,59.6348219,23.81480023,18.34,100,2976,0
CAAM,6/1/17,,,,,0,,,,,0,62.60818751,26.30522944,19.51,100,2880,0
CAAM,7/1/17,,,,,0,,,,,0,56.97703627,25.10423647,16.03,100,2976,0
CAAM,8/1/17,,,,,0,,,,,0,55.27522515,24.62313241,11.39,100,2976,0
CAAM,9/1/17,,,,,0,,,,,0,58.61450343,25.13796825,16.28,100,2880,0
CAAM,10/1/17,,,,,0,,,,,0,70.83894823,24.76447753,15.46,100,2976,0
CAAM,11/1/17,,,,,0,,,,,0,68.94942359,21.33110021,14.32,100,2880,335
CAAM,12/1/17,,,,,0,,,,,0,70.38891582,17.26081099,22.7,100,2970,2970
CAAM,1/1/18,,,,,0,,,,,0,70.1418088,17.73645546,28.02,100,2908,2908
CAAM,2/1/18,,,,,0,,,,,0,65.67496276,21.24476908,20.51,100,2688,2688
CAAM,3/1/18,,,,,0,,,,,0,72.25377346,23.11011106,29.2,100,2976,2976
CAAM,4/1/18,,,,,0,,,,,0,58.2689375,25.85424663,11.63,100,2880,2880
CAAM,5/1/18,,,,,0,,,,,0,62.78412639,21.55076371,20.83,100,2976,2976
CAAM,6/1/18,,,,,0,,,,,0,62.70937154,25.16262479,23.78,100,2880,2880
CAAM,7/1/18,,,,,0,,,,,0,56.64023856,26.53355722,13.23,100,2976,2976
CAAM,8/1/18,,,,,0,,,,,0,61.01231519,23.89639611,11.88,100,2976,2976
CAAM,9/1/18,,,,,0,,,,,0,67.11390627,24.1103009,17.28,100,2880,2880
CAAM,10/1/18,,,,,0,,,,,0,62.37583668,24.64602512,20.32,100,2976,2976
CAAM,11/1/18,,,,,0,,,,,0,62.33424453,20.05650102,19.31,100,2879,2558
CAAM,12/1/18,,,,,0,,,,,0,62.00195901,20.94845318,20.46,100,2976,133
CAAM,1/1/19,,,,,0,,,,,0,74.70891466,16.34678402,21.08,100,2976,144
CAAM,2/1/19,,,,,0,,,,,0,67.79577752,22.29990405,23.1,100,2688,291
CAAM,3/1/19,,,,,0,,,,,0,73.8122043,23.20970739,24.93,100,2976,616
CAAM,4/1/19,,,,,0,,,,,0,58.90746183,23.05137169,22.2,100,2880,308
CAAM,5/1/19,,,,,0,,,,,0,64.19281919,25.25715215,29.53,100,2976,500
CAAM,6/1/19,,,,,0,,,,,0,61.71695831,26.48735558,15.76,100,2880,420
CAAM,7/1/19,,,,,0,,,,,0,72.34527217,28.67783762,12.35,100,2976,723
CAAM,8/1/19,,,,,0,,,,,0,60.73779909,24.82199971,16.27,100,2976,187
CAAM,9/1/19,,,,,0,,,,,0,55.70599645,22.32018744,21.22,100,2880,113
CAAM,10/1/19,,,,,0,,,,,0,61.62148183,21.16622043,24.19,100,2976,172
CAAM,11/1/19,,,,,0,,,,,0,67.51386107,19.59909093,25.44,100,2880,151
CAAM,12/1/19,,,,,0,,,,,0,71.50763218,19.22606373,22.52,100,2969,481
CAAM,1/1/20,,,,,0,,,,,0,76.5720396,17.53441117,29.48,100,2976,2976
CAAM,2/1/20,,,,,0,,,,,0,74.70979168,21.14318252,28.68,100,2784,2784
CAAM,3/1/20,,,,,0,,,,,0,73.12836017,23.82919535,28.61,100,2976,2976
CAAM,4/1/20,,,,,0,,,,,0,59.55909027,25.51639827,23.01,100,2880,2880
CAAM,5/1/20,,,,,0,,,,,0,64.81352146,24.63022425,21.18,100,2976,2976
CAAM,6/1/20,,,,,0,,,,,0,64.60388892,25.10787123,17.2,100,2880,2880
CAAM,7/1/20,,,,,0,,,,,0,65.25077963,24.50158565,16.43,100,2976,2976
CAAM,8/1/20,,,,,0,,,,,0,77.39793008,24.68066455,29.08,100,2976,2976
CAAM,9/1/20,,,,,0,,,,,0,72.84583679,23.76334861,23.47,100,2880,2880
CAAM,10/1/20,,,,,0,,,,,0,57.7656653,22.65189886,21.14,100,2976,2976
CAAM,11/1/20,,,,,0,,,,,0,62.36409026,18.33365525,24.88,100,2880,2880
CAAM,12/1/20,,,,,0,,,,,0,61.20107865,17.07829838,20,100,2976,2976
CAAM,1/1/21,,,,,0,,,,,0,69.22736751,16.65273225,28.75,100,1698,1698
CAAM,2/1/21,,,,,0,,,,,0,67.32486776,21.72760005,13.34,100,1399,1399
CAAM,3/1/21,,,,,0,,,,,0,70.95314058,23.11392072,23.84,100,1280,1280
CAAM,4/1/21,,,,,0,,,,,0,75.86481941,22.0482656,30.28,100,2880,2880
CAAM,5/1/21,,,,,0,,,,,0,62.82270408,22.32131868,27.29,100,1923,1923
CAAM,8/1/21,,,,,0,,,,,0,46.11701921,25.72696357,18.89,95.13,104,104
CAAM,9/1/21,,,,,0,,,,,0,68.20688781,26.7376,20.77,100,1613,1614
CAAM,10/1/21,,,,,0,,,,,0,59.54327276,24.17209589,17.68,100,2860,2860
CAAM,11/1/21,,,,,0,,,,,0,62.74466483,17.92560508,23.56,100,2879,2879
CAAM,12/1/21,,,,,0,,,,,0,54.60328851,18.49029718,18.99,100,2971,2971
CAAM,1/1/22,,,,,0,,,,,0,67.086334,15.70979519,24.56,100,2976,2976
CAAM,2/1/22,,,,,0,,,,,0,71.43094497,19.14005438,28.42,100,2688,2688
CAAM,3/1/22,,,,,0,,,,,0,64.59299394,24.55947276,16.32,100,2976,2976
CAAM,4/1/22,,,,,0,,,,,0,69.62946529,23.56215122,21.67,100,2880,2880
CAAM,5/1/22,,,,,0,,,,,0,60.30618282,25.77990253,14.71,100,2976,2976
CAAM,6/1/22,,,,,0,,,,,0,71.83647226,25.09948394,28.8,100,2880,2880
CAAM,7/1/22,,,,,0,,,,,0,53.60125675,28.25165239,13.6,100,2976,2976
CAAM,8/1/22,,,,,0,,,,,0,62.65763104,24.33709937,15.65,100,2976,2976
CAAM,9/1/22,,,,,0,,,,,0,67.39336804,26.43039769,25.19,100,2880,2880
CAAM,10/1/22,,,,,0,,,,,0,61.91280578,24.51052953,17.21,100,2976,2976
CAAM,11/1/22,,,,,0,,,,,0,70.27024652,19.26644879,13.22,100,2880,2880
CAAM,12/1/22,,,,,0,,,,,0,65.44849444,19.88392169,11.2,100,1096,1096